www.pogodaiklimat.ru

Погода и климат >> Архив погоды >> Россия >> Хабаровский край >> Сектагли


ПОГОДА в Сектагли

  • Прогноз погоды в Сектагли
  • Монитор погоды в Сектагли

АРХИВ ПОГОДЫ в Сектагли

Время (UTC), дата Ветер
(напр.,м/с)
 
Видим.   Явления Облачность Т
(С)
Тd
(С)
f
(%)
Тe
(С)
Тes
(С)
Комфортность P
(гПа)
Po
(гПа)
Тmin
(С)
Tmax
(С)
R
(мм)
R24
(мм)
S
(см)
00 16.04 ЮВ 2 50 км 10/0
[Ac und]
+10.2 -5.5 33 +9 +12 994.3 961.9 +4.3
03 16.04 Ю 4 50 км 10/0
[Ac und]
+18.7 -8.6 15 +18 +21 989.3 957.9
06 16.04 З 5-11
{13}
50 км 10/8 600 м
[Cb cap Ac und]
+19.6 -7.7 15 +19 +19 988.5 957.3
09 16.04 СЗ 2
{14}
50 км 8/3 600 м
[Sc Ac As Cc]
+9.4 -4.0 39 +8 +9 997.1 964.5 +20.8
12 16.04 ЮЗ 2 50 км 10/0
[Cs]
+4.9 -9.2 35 +3 +3 1003.5 970.2
15 16.04 СЗ 1 50 км 10/0
[Cs]
+1.5 -13.5 32 +1 +1 1004.9 971.1
18 16.04 штиль 0 50 км 10/0
[Cs]
-2.0 -13.1 42 -2 -2 1007.3 973.0
21 16.04 штиль 0 50 км 8/0
[Ac trans]
-3.0 -8.7 65 -4 -4 1007.6 973.2 -3.5
00 17.04 ЮВ 1 50 км 10/0
[Ac und]
+0.7 -8.6 50 -1 +2 1008.3 974.3
03 17.04 С 3 50 км 10/10 1000 м
[Cb cap]
+1.3 -5.9 59 -3 -3 1007.5 973.6
06 17.04 В 3 10 км слаб. ливневой снег 10/10 1000 м
[Cb cap]
-0.7 -1.2 96 -6 -6 1006.0 971.9
09 17.04 штиль 0 10 км слаб. ливневой снег 10/10 1000 м
[Cb cap]
-0.5 -0.5 100 -2 -2 1004.3 970.3 +2.5 3
12 17.04 С 1 10 км слаб. ливневой снег 10/10 1000 м
[Cb cap]
-0.9 -0.9 100 -3 -3 1001.7 967.7
15 17.04 СВ 1 10 км слаб. ливневой снег 10/10 1000 м
[Cb cap]
-0.6 -0.6 100 -3 -3 998.6 964.8
18 17.04 штиль 0 10 км слаб. ливневой снег 10/10 1000 м
[Cb cap]
-0.2 -0.2 100 -2 -2 994.8 961.1
21 17.04 З 1 50 км {ливн. осадки} 10/10 600 м
[Cb cap]
+0.1 0.0 99 -2 -2 993.1 959.6 -1.0 9 11
00 18.04 СЗ 3 2000 м ливневой снег 10/10 600 м
[Cb cap]
+0.3 +0.3 100 -5 -5 993.6 960.1
03 18.04 СЗ 4
{11}
2000 м ливневой снег 10/10 600 м
[Cb cap]
-0.7 -0.7 100 -7 -7 996.6 962.9
06 18.04 СЗ 3
{11}
4000 м ливневой снег 10/10 600 м
[Cb cap]
-1.4 -1.5 99 -7 -7 1001.6 967.7
09 18.04 З 5
{13}
50 км в посл. час ливневой снег 10/10 600 м
[Cb cap]
-1.8 -4.2 84 -8 -8 1005.8 971.6 +0.4 16
12 18.04 З 3
{11}
50 км {ливн. осадки} 8/3 600 м
[Sc Ac lent Ci]
-2.3 -6.1 75 -7 -7 1008.2 973.8
15 18.04 З 3 50 км 6/6 600 м
[Cb cap]
-2.9 -6.6 76 -8 -8 1008.2 973.8
18 18.04 З 3 50 км 4/3 600 м
[Sc diur, vesp Ac lent]
-4.3 -8.5 72 -9 -9 1009.1 974.4
21 18.04 З 2 50 км 6/3 600 м
[Sc Ci fib]
-4.8 -8.7 74 -9 -9 1010.2 975.4 -4.9 17
00 19.04 СЗ 4 50 км 9/9 600 м
[Cb cap]
-1.7 -8.3 61 -7 -7 1011.3 977.0
03 19.04 СЗ 4 50 км 9/9 600 м
[Cb cap]
+1.3 -8.6 48 -3 -2 1012.4 978.4
06 19.04 СЗ 3
{11}
50 км 8/8 600 м
[Cu Sc]
+4.4 -9.9 35 +2 +3 1012.0 978.3
09 19.04 СЗ 2 50 км 5/5 600 м
[Sc]
+4.3 -11.3 31 +3 +3 1012.8 979.1 +4.9
12 19.04 З 1 50 км ясно -1.5 -8.8 57 -3 -3 1014.4 980.0
15 19.04 штиль 0 50 км ясно -4.9 -7.8 80 -6 -6 1014.9 980.0
18 19.04 штиль 0 50 км 3/0
[Ci fib]
-7.9 -7.9 100 -9 -9 1014.7 979.4
21 19.04 ЮВ 1 50 км ясно -7.6 -8.0 97 -10 -10 1013.2 978.0 -9.5 11
00 20.04 ЮВ 2 50 км 4/0
[Ac trans Ci fib]
-0.3 -6.7 62 -4 +2 1010.8 976.6
03 20.04 ЮВ 1 50 км 10/6 1000 м
[Cb cap Ac As]
+5.9 -10.1 31 +6 +8 1006.8 973.8
06 20.04 С 2 50 км 10/10 1000 м
[Cb cap]
+6.0 -9.1 33 +5 +5 1004.6 971.4
09 20.04 ЮВ 1
{10}
50 км 10/10 1000 м
[Cb cap]
+4.7 -4.6 51 +4 +4 1003.2 969.9 +6.5
12 20.04 ЮВ 1 50 км 10/10 1000 м
[Cb cap]
+2.5 -2.8 68 +1 +1 1004.4 970.8
15 20.04 З 2 50 км 8/8 1000 м
[Cb cap]
+2.7 -3.3 65 0 0 1004.5 1070.9
18 20.04 З 2 50 км 6/6 1000 м
[Cb cap]
+1.4 -1.7 80 -2 -2 1006.0 972.2
21 20.04 ЮЗ 2 50 км ясно +0.2 -6.2 62 -3 -3 1007.6 973.6 -1.1 8
00 21.04 З 4 50 км 5/5 600 м
[Sc]
+2.7 -9.0 42 -1 +1 1008.7 974.9
03 21.04 ЮЗ 4 50 км 6/6 600 м
[Cu med, cong]
+5.0 -9.9 33 +2 +6 1009.0 975.5
06 21.04 З 3 50 км 8/8 600 м
[Cb cap]
+5.5 -11.0 29 +3 +5 1009.5 976.0
09 21.04 З 1 50 км 8/8 600 м
[Cb cap]
+6.3 -12.0 26 +6 +6 1010.0 976.6 +6.4
12 21.04 С 1 50 км ясно +0.4 -9.8 46 -1 -1 1012.2 978.1
15 21.04 штиль 0 50 км ясно -3.1 -9.3 62 -4 -4 1014.2 979.6
18 21.04 штиль 0 50 км ясно -6.2 -8.3 85 -7 -7 1015.8 980.7
21 21.04 В 1 50 км ясно -6.4 -7.8 90 -9 -8 1017.1 981.9 -7.3
00 22.04 В 1 50 км ясно +1.6 -8.2 48 +1 +10 опасность
простуды
1016.6 982.4
03 22.04 ЮЗ 2 50 км 5/1 600 м
[Cu hum Ci fib]
+8.9 -10.8 24 +8 +20 опасность
простуды
1014.5 981.3
06 22.04 Ю 3 50 км 8/0
[Ac lent Cc]
+9.9 -11.5 21 +9 +14 1012.6 979.5
09 22.04 штиль 0 50 км 9/0
[Ac cast Ci]
+9.1 -14.0 18 +9 +10 1011.2 978.1 +10.9
12 22.04 штиль 0 50 км 5/0
[Ac As]
+4.0 -11.1 32 +4 +4 1010.9 977.2
15 22.04 ЮВ 1 50 км 10/0
[Ac und]
+3.9 -9.5 37 +3 +3 1009.6 976.0
18 22.04 В 1
{12}
50 км 10/10 600 м
[Cb cap]
+6.2 -12.0 26 +6 +6 1006.0 972.7
21 22.04 В 3 50 км 10/10 1000 м
[Cb cap]
+3.8 -7.2 44 +1 +1 1005.9 972.4 +2.7

 

Местоположение метеостанции Сектагли (Хабаровский край, Россия): широта 50.43 долгота 131.00 высота над уровнем моря 273 м.

В архиве по умолчанию представлена погода в Сектагли за последнюю неделю. Архивные данные за месяц целиком и за предыдущие месяцы, начиная с января 2011 года, Вы можете получить, выбрав интересующий диапазон дат из раскрывающегося списка и нажав кнопку "Ввод!".


*Определитесь, кто Вы:
робот инопланетянин человек

Внимание! Время в таблицах - всемирное. Для получения местного времени необходимо прибавить поправку, которая равна 10 ч.

Смотрите также архив погоды в соседних городах и на ближайших метеорологических станциях:

Погода в Сутуре (Хабаровский край, Россия) (88 км)
Погода в Чекунде (Хабаровский край, Россия) (98 км)
Погода в Малиновке (Амурская область, Россия) (107 км)
Погода в Завитае (Амурская область, Россия) (119 км)
Погода в Братолюбовке (Амурская область, Россия) (126 км)
Погода в Архаре (Амурская область, Россия) (133 км)
Погода в Екатеринославке (Амурская область, Россия) (142 км)
Погода в Чегдомыне (Хабаровский край, Россия) (157 км)
Погода в Облучье (Еврейская автономная область, Россия) (159 км)
Погода в Верховье Урми (Хабаровский край, Россия) (183 км)

Пояснения к столбцам:

Ветер - указаны скорость ветра в м/с - средняя за 10 мин, порывы в срок и между сроками (в фигурных скобках) и направление, откуда дует ветер: С - северный, СВ - северо-восточный, В - восточный, ЮВ - юго-восточный, Ю - южный, ЮЗ - юго-западный, З - западный, СЗ - северо-западный.
Видимость - горизонтальная дальность видимости в метрах или километрах. При видимости от 1 до 10 км при отсутствии осадков обычно наблюдается дымка, при ухудшении видимости до 1 км и менее - туман. В сухую погоду видимость может ухудшаться дымом, пылью или мглою.
Явления - указаны атмосферные явления, наблюдавшиеся в срок или в последний час перед сроком; фигурными скобками обозначены явления, наблюдавшиеся между сроками (за 1-3 часа до срока); квадратными скобками обозначены град или гололедные отложения с указанием их диаметра в мм.
Облачность - указаны через наклонную черту общая и нижняя облачность в баллах и высота нижней границы облаков в метрах; квадратными скобками обозначены формы облаков: Ci - перистые, Cs - перисто-слоистые, Cc - перисто-кучевые, Ac - высококучевые, As - высокослоистые, Sc - слоисто-кучевые, Ns - слоисто-дождевые, Cu - кучевые, Cb - кучево-дождевые. Подробнее классификацию облаков см. в Атласе облаков (PDF).
T - Температура воздуха - температура, измеренная на высоте 2 м над землей.
Td - Температура точки росы - температура, при понижении до которой содержащийся в воздухе водяной пар достигнет насыщения.
f - Относительная влажность воздуха - влажноcть воздуха, измеренная на высоте 2 м над землей.
Te - Эффективная температура - температура, которую ощущает одетый по сезону человек в тени. Характеристика душности погоды. При расчете учитывается влияние влажности воздуха и скорости ветра на теплоощущения человека.
Tes - Эффективная температура на солнце - температура, которую ощущает человек, с поправкой на солнечный нагрев. Характеристика знойности погоды. Зависит от высоты солнца над горизонтом, облачности и скорости ветра. Ночью, в пасмурную погоду, а также при ветре 12 м/с и более поправка равна нулю.
P - Атмосферное давление - приведенное к уровню моря атмосферное давление.
Po - Атмосферное давление - измеренное на уровне метеостанции атмосферное давление.
Tmin - Минимальная температура - минимум температуры воздуха на высоте 2 м над землей.
Tmax - Максимальная температура - максимум температуры воздуха на высоте 2 м над землей.
R - Количество осадков - Количество выпавших осадков за период времени, мм. При наведении курсора мыши на число - период времени, за который выпало указанное количество осадков.
R24 - Количество осадков - Количество выпавших осадков за 24 часа, мм.
S - Снежный покров - Высота снежного покрова, см. При наведении курсора мыши на число - состояние снежного покрова и степень покрытия местности в баллах.